星链-6076 (STARLINK-6076 )

导读 | 星芒AI

STARLINK-6076 是 SpaceX 星链计划中的一颗低轨通信卫星,属于第 18 批组网发射的星链卫星之一。该卫星于 2022 年 11 月 18 日由猎鹰 9 号火箭从美国佛罗里达州肯尼迪航天中心发射升空。星链卫星旨在为全球提供高速互联网服务,尤其覆盖偏远地区。STARLINK-6076 运行在约 550 公里的轨道高度,设计寿命约 5 至 7 年,具备自动避撞和推进能力,以确保轨道安全和可持续性。

基本信息
目录编号:
56100
目录名称:
STARLINK-6076
国际标识:
2023-046H
轨道中心:
EARTH
卫星名称:
星链-6076
卫星全名:
星链-6076 (STARLINK-6076 )
卫星状态:
在轨 (已飞行951 天)
发射日期:
2023-03-29 UTC
国别 :
美国 (US)
星等 :
--
轨道信息
数据来源 国际轨道数据 AOE轨道数据
星历时间 2025-11-04T03:08:44+0800
5小时前
查看轨道信息
2025-11-02T16:00:00+0800
1天前
查看轨道信息
半长轴 6937.224km 6937.219km
偏心率 0.0001256 0.0001339
轨道倾角 43.005° 43.002°
近地点辐角 266.100° 270.845°
升交点赤经 123.093° 131.050°
平近点角 93.969° 79.000°
近地点 558.217km 558.155km
远地点 559.961km 560.013km
周期 95.838分钟 95.838分钟
每日圈数 15.025338 15.025352
详细信息
固有亮度:
5
最大亮度:
2.5
卫星平台:
Starlink v1.5
覆盖范围:
全球
运营商:
太空探索技术公司
运营商所在国:
美国
制造商(研发单位):
太空探索技术公司
制造商所在国:
美国
使用方式:
暂无
卫星简介
星链(Starlink)计划是由太空探索技术公司(SpaceX)提出的一个巨型低轨卫星互联网星座项目,计划在2019年至2024年间在太空搭建由约1.2万颗卫星组成的“星链”网络,其中1584颗将部署在地球上空550千米处的近地轨道,并从2020年开始工作。该卫星仍在工作。
2D轨道图
3D轨道图
轨道高度分析图
轨道倾角分析图
轨道综合分析图
查看轨道综合分析图